CW5532 Weather Reports


Display with metric or nautical units.
time (UTC)temp
F
wind
direction
speed
MPH
gust
MPH
rain 1hr
in
rain 24hr
in
rain mn
in
humidity
%
barometer
mb
20260905170221 93 148 1.0 16.0 0.00 0.00 0.00 40 1017.7
20260905163221 94 228 3.0 12.0 0.00 0.00 0.00 39 1017.2
20260905153721 97 160 6.0 12.0 0.00 0.00 0.00 36 1017.0
20260905153221 97 137 5.0 16.0 0.00 0.00 0.00 36 1017.0
20260905150221 97 145 5.0 14.0 0.00 0.00 0.00 36 1016.9
20260905143721 97 177 4.0 12.0 0.00 0.00 0.00 36 1017.1
20260905120720 98 151 6.0 12.0 0.00 0.00 0.00 33 1017.8
20260905113221 96 149 4.0 10.0 0.00 0.00 0.00 36 1018.2
20260905110721 95 120 5.0 9.0 0.00 0.00 0.00 37 1018.5
20260905103720 93 123 4.0 7.0 0.00 0.00 0.00 41 1018.7
20260905103220 92 91 4.0 10.0 0.00 0.00 0.00 41 1018.7
20260905100720 91 99 2.0 5.0 0.00 0.00 0.00 46 1019.0
20260905093720 87 97 0.0 0.0 0.00 0.00 0.00 56 1019.3
20260905093220 86 98 0.0 0.0 0.00 0.00 0.00 58 1019.3
20260905090720 82 101 0.0 0.0 0.00 0.00 0.00 67 1019.6
20260905083220 80 86 0.0 0.0 0.00 0.00 0.00 68 1019.4
20260905080720 79 78 0.0 0.0 0.00 0.00 0.00 69 1019.3
20260905073219 77 257 0.0 0.0 0.00 0.00 0.00 69 1019.2
20260905063219 68 256 0.0 0.0 0.00 0.00 0.00 79 1019.2
20260905060719 64 247 0.0 0.0 0.00 0.00 0.00 80 1019.3
20260905060219 64 238 0.0 0.0 0.00 0.00 0.00 80 1019.1
20260905053719 63 241 0.0 0.0 0.00 0.00 0.00 80 1019.0
20260905053220 64 236 0.0 0.0 0.00 0.00 0.00 80 1018.9
20260905050720 64 242 0.0 0.0 0.00 0.00 0.00 80 1018.7
20260905043720 64 249 0.0 0.0 0.00 0.00 0.00 80 1018.2
20260905040719 64 249 0.0 0.0 0.00 0.00 0.00 80 1018.1
20260905040219 64 249 0.0 0.0 0.00 0.00 0.00 80 1017.9
20260905030719 65 249 0.0 0.0 0.00 0.00 0.00 79 1017.7
20260905030219 66 249 0.0 0.0 0.00 0.00 0.00 79 1017.6
20260905023219 66 249 0.0 0.0 0.00 0.00 0.00 79 1017.5
20260905020219 68 249 0.0 0.0 0.00 0.00 0.00 78 1017.5
20260905013219 70 249 0.0 0.0 0.00 0.00 0.00 77 1017.5
20260905010720 70 259 0.0 0.0 0.00 0.00 0.00 78 1017.7
20260905010220 70 259 0.0 0.0 0.00 0.00 0.00 78 1017.6
20260905003219 70 251 0.0 0.0 0.00 0.00 0.00 77 1017.7
20260905000718 71 253 0.0 0.0 0.00 0.00 0.00 77 1017.7
20260905000219 71 254 0.0 0.0 0.00 0.00 0.00 77 1017.7
20260904233719 73 259 0.0 0.0 0.00 0.00 0.00 76 1017.6
20260904230719 74 222 0.0 0.0 0.00 0.00 0.00 76 1017.6
20260904230219 74 222 0.0 0.0 0.00 0.00 0.00 76 1017.6
20260904220219 74 90 0.0 0.0 0.00 0.00 0.00 75 1018.1
20260904210718 78 90 0.0 0.0 0.00 0.00 0.00 71 1017.7
20260904210218 78 90 0.0 0.0 0.00 0.00 0.00 71 1017.9
20260904200718 81 90 0.0 0.0 0.00 0.00 0.00 67 1017.6
20260904190718 84 80 0.0 0.0 0.00 0.00 0.00 60 1017.1
20260904183720 87 98 0.0 7.0 0.00 0.00 0.00 55 1016.6
20260904183218 87 91 2.0 9.0 0.00 0.00 0.00 55 1016.5
20260904180718 88 80 0.0 0.0 0.00 0.00 0.00 54 1016.1
20260904173718 90 100 0.0 0.0 0.00 0.00 0.00 52 1015.7
20260904173218 91 129 2.0 8.0 0.00 0.00 0.00 51 1015.6